Location: Newark
(45.8667°N, 9.7333°E)
Time: 11:22:55
(UTC+00:00)

Vanguard 2 Rocket - Pass Details

Date: 28 January 2020
Orbit: 553 x 3327 km, 32.9° (Epoch: 26 February)

Event Time Altitude Azimuth Distance (km) Brightness Sun altitude
Rises 09:02:27 0° 252° (WSW) 3,749 9.9 17.3°
Reaches altitude 10° 09:06:29 10° 227° (SW) 3,253 9.9 17.7°
Maximum altitude 09:10:12 14° 199° (SSW) 3,397 10.4 18.1°
Drops below altitude 10° 09:14:48 10° 174° (S) 4,191 11.5 18.5°
Sets 09:21:44 0° 153° (SSE) 5,896 12.7 19.2°
